sat.trackr.live / text

‹ back to catalog

STARLINK-35891

NORAD 67045 · 2025-294R

PAYLOAD ACTIVE UNKNOWN

§ Identity

Operator
Country
US
Launch date
2025-12-11
Launch site
AFETR
Launch vehicle
Mass (kg)
RCS (m²)

Purposes: comms

External: N2YO · Heavens-Above · Gunter

§ Orbital elements

Epoch: 2026-09-19T14:40:44.037984Z

Period
94.27 min
Inclination
43.0025°
Eccentricity
0.0001056
Mean motion
15.27584749 rev/d
Perigee alt
482.3 km
Apogee alt
483.8 km
Semi-major
6,861.2 km
B*
3.4350e-4
RAAN
23.1987°
Arg perigee
260.4782°
Mean anomaly
99.5950°
Rev number
4,445

§ Raw data

STARLINK-358911 67045U 25294R   26262.61162081  .00009203  00000+0  34350-3 0  99982 67045  43.0025  23.1987 0001056 260.4782  99.5950 15.27584749 44455

JSON: /api/v1/satellites/67045 · /tle

For live sub-satellite position, see the globe view (requires WebGL).

§ Visibility from observer

Set your observer location to see the next 7 days of passes ≥ 10°. The values pass through the URL so the page stays shareable.

No JS? Fill the form by hand. The geolocation button needs JavaScript.